[[{"header":{"parameterUnit":"m.s-1","parameterCategory":1,"la1":30.2991,"la2":30.254,"lo1":-89.0895,"lo2":-89.0444,"dy":0.0017,"dx":0.0017,"nx":28,"ny":28,"refTime":"2024-03-24T03:00:00:Z","depth":0,"parameterNumber":2,"parameterNumberName":"U-component_of_WINDS"},"data":[0,0,0,0,0,0,0,0,0,0,0,0,0,0,0,0,0,0,0,0,0,0,0,0,0,0,0,0,0,0,0,0,0,0,0,0,0,0,0,0,0,0,0,0,0,0,0,0,0,0,0,0,0,0,0,0,0,0,-6.6177,-6.6179,0,-6.6388,-6.6391,-6.6393,-6.6457,-6.6456,-6.6454,-6.6453,-6.6673,-6.668,-6.6687,0,0,0,0,0,0,0,0,0,0,0,0,0,-6.583,-6.5836,-6.6177,-6.6179,-6.6182,-6.6388,-6.6391,-6.6394,-6.6457,-6.6455,-6.6454,-6.6453,-6.6671,-6.6679,-6.6687,0,0,0,0,0,0,0,0,0,0,0,0,0,-6.6005,-6.5838,-6.6176,-6.6238,-6.6246,-6.6387,-6.6391,-6.6394,-6.6457,-6.6455,-6.6454,-6.6452,-6.6668,-6.6678,-6.6689,-6.6785,0,0,-6.672,-6.6725,0,0,0,0,0,0,0,0,-6.5995,-6.6018,-6.6226,-6.6234,-6.6243,-6.6394,-6.6349,-6.6525,-6.6457,-6.6377,-6.6453,-6.6451,-6.6582,-6.6599,-6.6643,-6.6795,-6.6804,-6.6721,-6.6727,-6.6732,-6.6735,0,0,0,0,0,0,0,-6.5983,-6.6009,-6.6261,-6.6229,-6.624,-6.6256,-6.6279,-6.6383,-6.6486,-6.6384,-6.6389,-6.6413,-6.6586,-6.6633,-6.6648,-6.6808,-6.6721,-6.673,-6.6736,-6.674,-6.7048,-6.705,0,0,0,0,0,0,-6.596,-6.5998,-6.6254,-6.6267,-6.6112,-6.6264,-6.629,-6.6347,-6.6485,-6.6505,-6.6414,-6.6415,-6.6616,-6.6636,-6.6656,-6.6776,-6.6732,-6.6741,-6.6747,-6.7046,-6.7049,-6.7051,0,0,0,0,0,0,-6.5952,-6.5982,-6.6245,-6.6134,-6.6169,-6.6271,-6.6336,-6.6352,-6.6399,-6.6508,-6.6527,-6.6442,-6.6615,-6.6642,-6.6752,-6.6785,-6.6746,-6.6755,-6.7044,-6.7047,-6.705,-6.7017,0,0,0,0,0,0,-6.5942,-6.5979,-6.6016,-6.6134,-6.6174,-6.6336,-6.6338,-6.6358,-6.6416,-6.6419,-6.6539,-6.6558,-6.6616,-6.6736,-6.6762,-6.6798,-6.6763,-6.7041,-6.7045,-6.7049,-6.7016,-6.7019,-6.7021,0,0,0,0,0,-6.5929,-6.5999,-6.6017,-6.6048,-6.6223,-6.6338,-6.6361,-6.6425,-6.6418,-6.6456,-6.6527,-6.6554,-6.6777,-6.6747,-6.6776,-6.6816,-6.7039,-6.7044,-6.7048,-6.7015,-6.7018,-6.7021,0,0,0,0,0,0,-6.5883,-6.6016,-6.6037,-6.6148,-6.6231,-6.6348,-6.6398,-6.6428,-6.6515,-6.6515,-6.6593,-6.6619,-6.6723,-6.6782,-6.6745,-6.6916,-6.6909,-6.692,-6.6874,-6.6878,-6.6881,-6.6864,-6.6772,0,0,0,0,0,-6.5885,-6.5967,-6.6079,-6.6166,-6.6206,-6.6295,-6.6348,-6.639,-6.648,-6.6516,-6.6594,-6.6681,-6.677,-6.6828,-6.6917,-6.7025,-6.7052,-6.7068,-6.707,-6.7072,-6.708,-6.714,-6.7148,-6.7066,-6.7065,-6.7065,0,0,-6.5891,-6.5974,-6.6021,-6.6159,-6.6228,-6.6311,-6.6324,-6.6412,-6.6474,-6.653,-6.6637,-6.6697,-6.68,-6.6908,-6.6961,-6.696,-6.7109,-6.7078,-6.7078,-6.7085,-6.7146,-6.7153,-6.716,-6.7069,-6.7068,-6.7068,0,0,-6.5944,-6.6016,-6.6095,-6.6164,-6.6268,-6.6327,-6.6345,-6.6459,-6.65,-6.661,-6.6652,-6.6728,-6.6882,-6.6952,-6.7008,-6.7087,-6.7115,-6.7114,-6.7128,-6.7186,-6.7192,-6.7198,-6.7225,-6.7233,-6.7122,-6.7122,-6.7122,0,-6.5939,-6.6065,-6.6132,-6.6217,-6.6276,-6.6329,-6.6409,-6.6473,-6.6602,-6.6641,-6.6639,-6.6831,-6.6904,-6.7029,-6.7048,-6.7093,-6.7116,-6.71,-6.7186,-6.7192,-6.7199,-6.7225,-6.7235,-6.7121,-6.7121,-6.7121,-6.7121,0,-6.6052,-6.6139,-6.619,-6.6311,-6.6376,-6.6458,-6.6538,-6.6596,-6.6633,-6.6692,-6.6802,-6.6891,-6.6998,-6.7031,-6.7069,-6.7162,-6.7158,-6.717,-6.7165,-6.7205,-6.723,-6.7241,-6.7119,-6.712,-6.712,-6.712,0,0,-6.6081,-6.6237,-6.6255,-6.6309,-6.6428,-6.6497,-6.6582,-6.6685,-6.6732,-6.682,-6.6892,-6.702,-6.7031,-6.7094,-6.7141,-6.7192,-6.7247,-6.7198,-6.7201,-6.7202,-6.7353,-6.7341,-6.7352,-6.7267,-6.7269,-6.7271,-6.7343,0,-6.6147,-6.6299,-6.6362,-6.6485,-6.6565,-6.6616,-6.669,-6.6771,-6.6829,-6.6906,-6.697,-6.7058,-6.7068,-6.7106,-6.7159,-6.7229,-6.7278,-6.7225,-6.7335,-6.7338,-6.7305,-6.7366,-6.7355,-6.7419,-6.7354,-6.7356,-6.7357,0,-6.6245,-6.633,-6.646,-6.6568,-6.6604,-6.6669,-6.6768,-6.6841,-6.6935,-6.6973,-6.7043,-6.7086,-6.7178,-6.7168,-6.7294,-6.7256,-6.7306,-6.7347,-6.7351,-6.7362,-6.7348,-6.7376,-6.7441,-6.7449,-6.7374,-6.7373,-6.7372,0,-6.6249,-6.6398,-6.6494,-6.654,-6.6669,-6.6713,-6.6769,-6.6861,-6.6918,-6.7006,-6.7044,-6.7141,-6.7194,-6.7268,-6.7337,-6.7324,-6.7457,-6.7453,-6.7491,-6.7489,-6.7515,-6.7512,-6.7586,-6.755,-6.755,-6.755,-6.7549,0,-6.6316,-6.6393,-6.6498,-6.6557,-6.6645,-6.6717,-6.6802,-6.6862,-6.6943,-6.7015,-6.7067,-6.7134,-6.7222,-6.73,-6.7355,-6.745,-6.7475,-6.7508,-6.7521,-6.7502,-6.7497,-6.7534,-6.7531,-6.7552,-6.7552,-6.7551,-6.7551,0,-6.6335,-6.6409,-6.6517,-6.663,-6.666,-6.6719,-6.6816,-6.6876,-6.6936,-6.7026,-6.7052,-6.7146,-6.7241,-6.7317,-6.7442,-6.7479,-6.7578,-6.7594,-6.7545,-6.7552,-6.7585,-6.758,-6.7683,-6.77,-6.7654,-6.7654,-6.7654,0,-6.6371,-6.6431,-6.655,-6.6601,-6.6656,-6.6738,-6.6797,-6.6871,-6.693,-6.704,-6.7086,-6.7184,-6.7266,-6.7415,-6.7495,-6.759,-6.7608,-6.7638,-6.7623,-6.7601,-6.7606,-6.7601,-6.7607,-6.7639,-6.7639,-6.7639,-6.7639,0,-6.6427,-6.646,-6.6542,-6.6636,-6.6704,-6.6782,-6.6862,-6.6901,-6.699,-6.7053,-6.715,-6.7213,-6.7339,-6.7436,-6.7539,-6.7598,-6.7633,-6.7643,-6.7657,-6.7637,-6.7605,-6.762,-6.7547,-6.764,-6.764,-6.764,-6.764,-6.764,-6.6455,-6.651,-6.6601,-6.669,-6.6758,-6.6831,-6.6891,-6.6958,-6.7039,-6.7146,-6.7186,-6.7284,-6.7376,-6.7519,-6.7578,-6.7657,-6.766,-6.768,-6.7685,-6.7688,-6.7685,-6.7594,-6.7676,-6.7677,-6.7677,-6.7677,-6.7677,0,-6.6511,-6.6572,-6.6654,-6.6762,-6.6832,-6.6858,-6.6948,-6.7005,-6.709,-6.7172,-6.7251,-6.7362,-6.7455,-6.7543,-6.7641,-6.7687,-6.7705,-6.771,-6.7706,-6.7719,-6.7677,-6.7654,-6.7693,-6.7693,-6.7693,-6.7693,-6.7693,-6.7693,-6.6548,-6.6642,-6.6686,-6.6815,-6.6876,-6.6971,-6.702,-6.7088,-6.7153,-6.7273,-6.7351,-6.7407,-6.7491,-6.7596,-6.7683,-6.7706,-6.7739,-6.7739,-6.7766,-6.7725,-6.7722,-6.772,-6.7699,-6.7746,-6.7746,-6.7802,-6.7802,-6.7803]},{"header":{"parameterUnit":"m.s-1","parameterCategory":1,"la1":30.2991,"la2":30.254,"lo1":-89.0895,"lo2":-89.0444,"dy":0.0017,"dx":0.0017,"nx":28,"ny":28,"refTime":"2024-03-24T03:00:00:Z","depth":0,"parameterNumber":3,"parameterNumberName":"V-component_of_WINDS"},"data":[0,0,0,0,0,0,0,0,0,0,0,0,0,0,0,0,0,0,0,0,0,0,0,0,0,0,0,0,0,0,0,0,0,0,0,0,0,0,0,0,0,0,0,0,0,0,0,0,0,0,0,0,0,0,0,0,0,0,4.22,4.2199,0,4.2116,4.2115,4.2114,4.2044,4.2043,4.2042,4.2041,4.1957,4.1955,4.1954,0,0,0,0,0,0,0,0,0,0,0,0,0,4.2301,4.2299,4.22,4.2199,4.2198,4.2116,4.2115,4.2114,4.2044,4.2043,4.2042,4.2041,4.1957,4.1955,4.1954,0,0,0,0,0,0,0,0,0,0,0,0,0,4.2241,4.2299,4.22,4.2153,4.2148,4.2117,4.2115,4.2114,4.2044,4.2043,4.2042,4.2041,4.1958,4.1956,4.1953,4.1962,0,0,4.1946,4.1945,0,0,0,0,0,0,0,0,4.2245,4.2237,4.2161,4.2156,4.2151,4.2089,4.2119,4.2063,4.2044,4.2084,4.2041,4.204,4.2002,4.1996,4.1983,4.1958,4.1955,4.1946,4.1945,4.1944,4.1943,0,0,0,0,0,0,0,4.2249,4.2241,4.2167,4.216,4.2154,4.2137,4.2127,4.2108,4.205,4.208,4.2075,4.2066,4.1999,4.1985,4.198,4.1953,4.1946,4.1944,4.1943,4.1942,4.1932,4.1934,0,0,0,0,0,0,4.226,4.2245,4.217,4.2164,4.2196,4.2136,4.2125,4.211,4.205,4.204,4.2067,4.2063,4.199,4.1983,4.1977,4.1984,4.1944,4.1942,4.194,4.1931,4.1933,4.1934,0,0,0,0,0,0,4.2263,4.2254,4.2173,4.2203,4.2191,4.2135,4.2119,4.2109,4.2095,4.204,4.203,4.2064,4.1988,4.198,4.1966,4.198,4.1941,4.1938,4.193,4.1932,4.1933,4.1998,0,0,0,0,0,0,4.2266,4.2255,4.2258,4.2204,4.219,4.2164,4.212,4.2108,4.2091,4.2085,4.2034,4.2025,4.1987,4.197,4.1964,4.1976,4.1937,4.1929,4.1931,4.1933,4.1995,4.2002,4.2008,0,0,0,0,0,4.227,4.228,4.2259,4.225,4.2192,4.2165,4.2157,4.2113,4.2093,4.2095,4.206,4.2026,4.1979,4.1969,4.1962,4.1974,4.1928,4.193,4.1933,4.1992,4.2001,4.2008,0,0,0,0,0,0,4.2338,4.2272,4.2248,4.224,4.2209,4.2153,4.2155,4.2124,4.2098,4.2093,4.204,4.2029,4.2021,4.1995,4.1986,4.1979,4.1949,4.195,4.1997,4.2005,4.2011,4.2018,4.1935,0,0,0,0,0,4.2352,4.2335,4.2278,4.2277,4.2263,4.2212,4.2198,4.2167,4.2132,4.2118,4.2082,4.205,4.2028,4.2014,4.1991,4.199,4.1979,4.1994,4.2001,4.2007,4.2009,4.2008,4.2015,4.1942,4.1942,4.1942,0,0,4.2381,4.2343,4.2336,4.229,4.2262,4.2246,4.2201,4.2186,4.2174,4.2116,4.2101,4.2073,4.2034,4.2027,4.2022,4.2006,4.2026,4.201,4.2015,4.2014,4.2011,4.2018,4.2024,4.1944,4.1944,4.1944,0,0,4.2427,4.2396,4.2392,4.2364,4.2322,4.2288,4.2287,4.2236,4.2215,4.2199,4.2156,4.214,4.2103,4.2077,4.2059,4.2094,4.2063,4.2088,4.2124,4.2123,4.2129,4.2134,4.2148,4.2153,4.209,4.209,4.209,0,4.2469,4.2443,4.2394,4.2382,4.2364,4.231,4.2306,4.2282,4.2234,4.2223,4.2205,4.2157,4.2127,4.2114,4.2122,4.2109,4.2107,4.2095,4.2132,4.2136,4.214,4.2153,4.2158,4.2094,4.2093,4.2093,4.2093,0,4.2497,4.248,4.2482,4.2437,4.2419,4.2411,4.2362,4.2349,4.2319,4.2287,4.2271,4.2233,4.2201,4.2195,4.2166,4.2178,4.2169,4.2142,4.2111,4.2151,4.2162,4.2167,4.2099,4.2097,4.2096,4.2096,0,0,4.2585,4.2513,4.2514,4.2494,4.2443,4.2429,4.2418,4.2387,4.2378,4.2346,4.2337,4.2306,4.2281,4.2261,4.2228,4.2227,4.2259,4.22,4.2198,4.2214,4.2271,4.2293,4.2299,4.2237,4.2237,4.2238,4.2275,0,4.2623,4.2602,4.2558,4.255,4.2534,4.2483,4.2473,4.2442,4.2411,4.2393,4.2359,4.2339,4.2307,4.2294,4.2291,4.2256,4.227,4.2252,4.2229,4.2229,4.2242,4.2304,4.2327,4.2364,4.2278,4.2279,4.228,0,4.2666,4.2638,4.2629,4.2579,4.2571,4.2564,4.2531,4.2514,4.2477,4.2455,4.2432,4.2396,4.2382,4.2352,4.2334,4.2323,4.231,4.2292,4.2292,4.229,4.2258,4.2305,4.2374,4.2381,4.2286,4.2285,4.2285,0,4.2733,4.2692,4.2682,4.2666,4.2607,4.2603,4.2579,4.254,4.2524,4.2496,4.2485,4.2455,4.244,4.2418,4.2375,4.2357,4.2361,4.2328,4.2344,4.2345,4.2349,4.2349,4.2418,4.2338,4.2338,4.2338,4.2337,0,4.2782,4.2779,4.2711,4.2706,4.2701,4.2649,4.2646,4.2617,4.2583,4.257,4.2523,4.2513,4.2455,4.2438,4.2404,4.2394,4.2387,4.237,4.2361,4.2375,4.2378,4.2367,4.2365,4.2339,4.2339,4.2338,4.2338,0,4.2857,4.2811,4.2797,4.2742,4.2728,4.2728,4.2681,4.2673,4.2639,4.2624,4.2618,4.2565,4.2542,4.2496,4.2461,4.2438,4.2437,4.242,4.245,4.2445,4.2464,4.2464,4.253,4.2537,4.2451,4.2452,4.2453,0,4.2892,4.2888,4.2833,4.2822,4.2799,4.278,4.2764,4.2713,4.2697,4.2654,4.2652,4.2625,4.2602,4.2568,4.2527,4.2499,4.2483,4.2508,4.2479,4.2493,4.2485,4.2487,4.2487,4.2516,4.2517,4.2518,4.2518,0,4.296,4.2938,4.2915,4.2885,4.2867,4.284,4.2812,4.2805,4.2747,4.2732,4.2708,4.269,4.2653,4.2628,4.2595,4.2569,4.2535,4.2528,4.253,4.2546,4.2564,4.2556,4.247,4.2527,4.2526,4.2526,4.2525,4.2525,4.3017,4.3012,4.2973,4.295,4.2922,4.2897,4.2887,4.2852,4.2831,4.2797,4.2768,4.2747,4.2709,4.2661,4.2638,4.2621,4.2604,4.2607,4.2608,4.2611,4.2617,4.2565,4.2614,4.2614,4.2613,4.2613,4.2613,0,4.3085,4.3056,4.3035,4.2997,4.2979,4.2946,4.2913,4.29,4.2882,4.285,4.2827,4.28,4.2775,4.2731,4.2703,4.2697,4.2681,4.2692,4.2693,4.2688,4.2633,4.2635,4.2706,4.2706,4.2706,4.2706,4.2706,4.2706,4.3118,4.3108,4.3081,4.3057,4.3028,4.3007,4.2991,4.2967,4.2941,4.2913,4.2892,4.2863,4.2826,4.2794,4.277,4.2758,4.275,4.2767,4.275,4.27,4.2691,4.2683,4.2684,4.2765,4.2765,4.2806,4.2806,4.2807]}]]